When you browse on this site, cookies collect data to enhance your experience and personalize the content and advertising you see.
Visit our Privacy Policy to learn more. By continuing to use the site, you agree to this use of cookies and data.
  • In Austria
  • List of Countries
  • For 7 days
  • Water Temperature
  • Weather Map
  • News
  • Weather Widgets
  • user-avatar
    Login

    Hourly Weather Vratsa

    Today, 18 October, Friday

    Time Temperature Precipitation Wind Pressure Humidity
    00:00 +15°C° 0 mm 1 mps 711 mmHg 55%
    01:00 +14°C° 0 mm 1 mps 710 mmHg 56%
    02:00 +14°C° 0 mm 1 mps 711 mmHg 56%
    03:00 +14°C° 0 mm 1 mps 710 mmHg 57%
    04:00 +13°C° 0 mm 1 mps 710 mmHg 58%
    05:00 +13°C° 0 mm 1 mps 710 mmHg 60%
    06:00 +14°C° 0 mm 1 mps 710 mmHg 58%
    07:00 +13°C° 0 mm 0 mps 710 mmHg 57%
    08:00 +14°C° 0 mm 0 mps 711 mmHg 55%
    09:00 +18°C° 0 mm 1 mps 711 mmHg 49%
    10:00 +20°C° 0 mm 1 mps 711 mmHg 43%
    11:00 +22°C° 0 mm 1 mps 712 mmHg 37%
    12:00 +23°C° 0 mm 1 mps 711 mmHg 35%
    13:00 +24°C° 0 mm 1 mps 711 mmHg 34%
    14:00 +25°C° 0 mm 2 mps 710 mmHg 32%
    15:00 +24°C° 0 mm 1 mps 710 mmHg 34%
    16:00 +23°C° 0 mm 1 mps 710 mmHg 37%
    17:00 +22°C° 0 mm 1 mps 710 mmHg 40%
    18:00 +21°C° 0 mm 1 mps 709 mmHg 43%
    19:00 +19°C° 0 mm 1 mps 709 mmHg 47%
    20:00 +18°C° 0 mm 1 mps 709 mmHg 50%
    21:00 +16°C° 0 mm 1 mps 709 mmHg 51%
    22:00 +16°C° 0 mm 1 mps 710 mmHg 52%
    23:00 +16°C° 0 mm 1 mps 710 mmHg 53%

    Tomorrow, 19 October, Saturday

    Time Temperature Precipitation Wind Pressure Humidity
    00:00 +16°C° 0 mm 1 mps 710 mmHg 54%
    01:00 +15°C° 0 mm 1 mps 710 mmHg 55%
    02:00 +15°C° 0 mm 1 mps 710 mmHg 56%
    03:00 +14°C° 0 mm 1 mps 710 mmHg 58%
    04:00 +14°C° 0 mm 1 mps 710 mmHg 60%
    05:00 +14°C° 0 mm 1 mps 710 mmHg 62%
    06:00 +14°C° 0 mm 1 mps 710 mmHg 61%
    07:00 +15°C° 0 mm 1 mps 710 mmHg 59%
    08:00 +15°C° 0 mm 1 mps 710 mmHg 58%
    09:00 +19°C° 0 mm 1 mps 711 mmHg 52%
    10:00 +21°C° 0 mm 1 mps 711 mmHg 46%
    11:00 +23°C° 0 mm 1 mps 711 mmHg 40%
    12:00 +24°C° 0 mm 1 mps 711 mmHg 38%
    13:00 +25°C° 0 mm 1 mps 711 mmHg 36%
    14:00 +25°C° 0 mm 2 mps 711 mmHg 33%
    15:00 +24°C° 0 mm 1 mps 710 mmHg 36%
    16:00 +24°C° 0 mm 1 mps 710 mmHg 38%
    17:00 +23°C° 0 mm 1 mps 710 mmHg 41%
    18:00 +21°C° 0 mm 1 mps 710 mmHg 44%
    19:00 +20°C° 0 mm 1 mps 710 mmHg 48%
    20:00 +18°C° 0 mm 1 mps 710 mmHg 51%
    21:00 +18°C° 0 mm 1 mps 710 mmHg 53%
    22:00 +18°C° 0 mm 1 mps 711 mmHg 54%
    23:00 +16°C° 0 mm 1 mps 711 mmHg 55%

    Day after tomorrow, 20 October, Sunday

    Time Temperature Precipitation Wind Pressure Humidity
    00:00 +16°C° 0 mm 1 mps 711 mmHg 57%
    01:00 +16°C° 0 mm 1 mps 711 mmHg 59%
    02:00 +15°C° 0 mm 1 mps 711 mmHg 61%
    03:00 +15°C° 0 mm 1 mps 711 mmHg 63%
    04:00 +14°C° 0 mm 1 mps 711 mmHg 64%
    05:00 +14°C° 0 mm 1 mps 711 mmHg 66%
    06:00 +15°C° 0 mm 1 mps 711 mmHg 64%
    07:00 +15°C° 0 mm 1 mps 711 mmHg 63%
    08:00 +16°C° 0 mm 1 mps 712 mmHg 61%
    09:00 +19°C° 0 mm 1 mps 712 mmHg 54%
    10:00 +21°C° 0 mm 1 mps 712 mmHg 47%
    11:00 +23°C° 0 mm 1 mps 713 mmHg 40%
    12:00 +24°C° 0 mm 1 mps 713 mmHg 38%
    13:00 +25°C° 0 mm 1 mps 712 mmHg 35%
    14:00 +26°C° 0 mm 1 mps 712 mmHg 33%
    15:00 +25°C° 0 mm 1 mps 712 mmHg 36%
    16:00 +24°C° 0 mm 1 mps 712 mmHg 39%
    17:00 +23°C° 0 mm 1 mps 711 mmHg 42%
    18:00 +21°C° 0 mm 1 mps 712 mmHg 46%
    19:00 +20°C° 0 mm 1 mps 712 mmHg 50%
    20:00 +19°C° 0 mm 1 mps 712 mmHg 54%
    21:00 +18°C° 0 mm 1 mps 712 mmHg 55%
    22:00 +18°C° 0 mm 1 mps 712 mmHg 56%
    23:00 +16°C° 0 mm 1 mps 712 mmHg 58%

    21 October, Monday

    Time Temperature Precipitation Wind Pressure Humidity
    00:00 +16°C° 0 mm 1 mps 712 mmHg 59%
    01:00 +16°C° 0 mm 1 mps 712 mmHg 61%
    02:00 +15°C° 0 mm 1 mps 712 mmHg 62%
    03:00 +15°C° 0 mm 1 mps 712 mmHg 63%
    04:00 +15°C° 0 mm 1 mps 712 mmHg 65%
    05:00 +14°C° 0 mm 1 mps 712 mmHg 66%
    06:00 +15°C° 0 mm 1 mps 712 mmHg 64%
    07:00 +15°C° 0 mm 1 mps 712 mmHg 62%
    08:00 +16°C° 0 mm 1 mps 713 mmHg 60%
    09:00 +19°C° 0 mm 1 mps 713 mmHg 53%
    10:00 +21°C° 0 mm 1 mps 713 mmHg 47%
    11:00 +23°C° 0 mm 1 mps 714 mmHg 40%
    12:00 +24°C° 0 mm 1 mps 714 mmHg 38%
    13:00 +25°C° 0 mm 1 mps 714 mmHg 36%
    14:00 +26°C° 0 mm 1 mps 713 mmHg 34%
    15:00 +25°C° 0 mm 1 mps 713 mmHg 37%
    16:00 +24°C° 0 mm 1 mps 713 mmHg 40%
    17:00 +23°C° 0 mm 1 mps 712 mmHg 43%
    18:00 +21°C° 0 mm 1 mps 712 mmHg 47%
    19:00 +20°C° 0 mm 1 mps 712 mmHg 51%
    20:00 +18°C° 0 mm 1 mps 713 mmHg 54%
    21:00 +18°C° 0 mm 1 mps 713 mmHg 56%
    22:00 +18°C° 0 mm 1 mps 713 mmHg 57%
    23:00 +16°C° 0 mm 1 mps 713 mmHg 58%

    22 October, Tuesday

    Time Temperature Precipitation Wind Pressure Humidity
    00:00 +16°C° 0 mm 1 mps 713 mmHg 59%
    01:00 +15°C° 0 mm 1 mps 713 mmHg 60%
    02:00 +15°C° 0 mm 1 mps 713 mmHg 61%
    03:00 +15°C° 0 mm 1 mps 713 mmHg 62%
    04:00 +14°C° 0 mm 1 mps 713 mmHg 63%
    05:00 +14°C° 0 mm 1 mps 713 mmHg 64%
    06:00 +15°C° 0 mm 1 mps 713 mmHg 62%
    07:00 +14°C° 0 mm 0 mps 713 mmHg 60%
    08:00 +15°C° 0 mm 0 mps 713 mmHg 58%
    09:00 +19°C° 0 mm 1 mps 713 mmHg 51%
    10:00 +22°C° 0 mm 1 mps 714 mmHg 44%
    11:00 +24°C° 0 mm 1 mps 714 mmHg 37%
    12:00 +25°C° 0 mm 1 mps 714 mmHg 35%
    13:00 +25°C° 0 mm 1 mps 713 mmHg 33%
    14:00 +26°C° 0 mm 1 mps 713 mmHg 30%
    15:00 +25°C° 0 mm 1 mps 713 mmHg 33%
    16:00 +24°C° 0 mm 1 mps 713 mmHg 36%
    17:00 +23°C° 0 mm 1 mps 712 mmHg 39%
    18:00 +21°C° 0 mm 1 mps 712 mmHg 42%
    19:00 +20°C° 0 mm 1 mps 713 mmHg 45%
    20:00 +18°C° 0 mm 1 mps 713 mmHg 48%
    21:00 +18°C° 0 mm 1 mps 713 mmHg 49%
    22:00 +18°C° 0 mm 1 mps 713 mmHg 50%
    23:00 +16°C° 0 mm 1 mps 713 mmHg 51%

    23 October, Wednesday

    Time Temperature Precipitation Wind Pressure Humidity
    00:00 +16°C° 0 mm 1 mps 713 mmHg 51%
    01:00 +16°C° 0 mm 1 mps 713 mmHg 52%
    02:00 +14°C° 0 mm 0 mps 713 mmHg 53%
    03:00 +14°C° 0 mm 0 mps 713 mmHg 55%
    04:00 +13°C° 0 mm 0 mps 713 mmHg 57%
    05:00 +13°C° 0 mm 0 mps 713 mmHg 60%
    06:00 +13°C° 0 mm 0 mps 713 mmHg 59%
    07:00 +14°C° 0 mm 0 mps 714 mmHg 59%
    08:00 +14°C° 0 mm 0 mps 714 mmHg 58%
    09:00 +18°C° 0 mm 1 mps 714 mmHg 53%
    10:00 +20°C° 0 mm 1 mps 714 mmHg 48%
    11:00 +20°C° 0 mm 2 mps 714 mmHg 43%
    12:00 +21°C° 0 mm 2 mps 714 mmHg 41%
    13:00 +23°C° 0 mm 2 mps 714 mmHg 40%
    14:00 +24°C° 0 mm 2 mps 714 mmHg 38%
    15:00 +23°C° 0 mm 2 mps 713 mmHg 41%
    16:00 +21°C° 0 mm 2 mps 713 mmHg 45%
    17:00 +20°C° 0 mm 2 mps 712 mmHg 48%
    18:00 +19°C° 0 mm 2 mps 713 mmHg 52%
    19:00 +17°C° 0 mm 2 mps 713 mmHg 57%
    20:00 +16°C° 0 mm 1 mps 713 mmHg 62%
    21:00 +15°C° 0 mm 1 mps 713 mmHg 65%
    22:00 +15°C° 0 mm 1 mps 713 mmHg 68%
    23:00 +14°C° 0 mm 1 mps 713 mmHg 71%
    Show more